Theta_e
308 309 308 308 308 308 308 308 308 309 310 310 310 310 310 311 311 311 310 310 310 309 310 314 318 319 320 320 320 321 320 319 320 320 318 319 319 316 314 315 318 321 322 321 321 322 324 322 322 319 310 304 301 299 299 299 299 299 299 298 298 298 299 299 299 299 300 300 300 300 299 298 297 297 297 297 297 297 296 296 296 299 304 305 305
310 310 309 308 308 308 308 308 308 308 309 309 310 310 310 310 310 310 310 309 309 309 310 314 318 318 319 320 320 321 320 320 320 320 319 319 319 317 315 314 315 317 319 319 318 321 324 323 323 321 316 309 302 299 299 299 299 299 299 298 298 298 298 298 298 299 299 300 300 299 299 298 297 297 297 298 297 297 296 296 296 297 301 305 306
313 313 312 309 308 308 308 308 308 308 308 308 309 309 309 310 310 310 309 309 309 309 309 313 317 319 320 321 319 320 320 320 320 319 319 319 319 319 316 314 314 314 315 315 314 319 324 323 322 321 319 313 305 300 300 299 299 299 298 298 298 299 298 298 298 299 299 299 299 299 299 298 297 298 297 298 297 297 296 296 296 296 299 303 304
312 314 313 311 308 307 308 307 307 308 307 308 308 308 309 309 309 309 309 309 308 309 309 312 317 320 322 321 320 320 320 320 320 319 319 320 319 319 318 317 315 313 313 313 311 316 323 323 322 321 319 315 308 303 300 299 299 298 298 298 298 298 298 298 298 298 299 299 299 299 298 298 298 298 298 298 297 296 296 296 296 296 297 299 302
310 311 312 310 308 307 308 308 308 307 307 307 307 307 308 308 308 308 308 308 308 308 308 311 315 319 322 322 321 320 320 320 321 320 319 320 320 319 319 318 316 314 313 312 311 314 319 322 321 320 319 315 309 303 300 299 299 298 298 298 299 298 298 298 298 298 298 298 299 299 298 298 298 298 298 297 297 296 296 296 296 296 296 297 299
309 309 309 308 308 308 308 308 307 307 307 307 307 307 307 307 308 307 308 308 308 307 308 312 316 319 321 322 321 321 321 321 321 321 320 320 320 319 319 318 317 317 314 311 310 312 318 321 321 320 318 315 310 306 304 302 299 298 298 298 299 298 297 297 298 298 298 298 298 298 298 298 298 298 298 297 297 297 296 296 296 296 296 296 297
310 309 308 308 308 308 308 307 307 307 307 307 307 307 307 307 307 307 308 307 307 307 309 313 317 320 322 322 322 322 321 321 321 321 321 321 320 319 318 318 318 319 316 313 310 309 315 320 320 319 318 315 312 311 309 307 303 299 298 298 298 298 297 297 297 297 297 297 297 298 298 298 298 297 297 297 297 297 296 296 296 296 296 296 296
312 310 309 308 308 308 308 308 307 307 307 307 307 307 308 308 307 307 307 307 307 307 309 314 317 319 322 323 322 322 322 322 321 321 321 321 321 320 319 318 317 318 317 316 314 310 311 317 319 319 319 315 313 314 313 310 306 301 298 298 298 297 298 297 297 297 297 297 297 297 298 297 297 297 297 297 297 297 297 296 296 296 296 296 295
313 312 310 309 308 308 308 308 307 307 307 307 307 308 308 308 308 307 307 307 307 308 310 314 317 319 321 323 322 322 322 322 322 321 321 321 320 320 319 318 317 317 317 317 317 315 312 314 316 316 316 314 313 314 313 312 309 303 298 297 297 297 297 297 297 297 296 296 296 297 297 297 297 297 297 297 297 297 297 297 296 296 295 295 295
314 312 311 310 309 308 308 308 308 308 308 308 308 308 308 308 308 308 307 307 307 308 311 314 318 320 322 323 322 322 322 322 321 321 321 321 321 320 319 318 317 317 318 318 318 317 316 314 314 313 312 311 311 312 312 311 309 305 299 297 297 297 296 297 297 296 296 296 296 296 296 296 296 297 297 297 297 297 297 297 296 296 295 295 295
317 314 312 311 310 309 309 308 308 308 308 308 308 308 308 308 308 308 308 307 307 308 312 316 319 321 323 323 323 322 322 322 321 321 321 321 320 320 319 318 317 317 318 319 318 318 318 317 315 314 311 310 310 310 310 308 307 305 300 297 297 297 297 296 296 296 296 296 296 296 296 296 296 296 296 297 297 297 296 296 296 295 295 295 295
321 317 314 312 311 310 310 309 309 309 308 308 309 309 309 309 309 308 308 307 307 308 312 315 319 322 323 323 323 323 322 322 321 321 321 321 320 320 320 318 318 318 318 318 319 318 318 318 317 316 315 313 310 308 306 304 303 303 300 298 298 298 297 296 296 296 296 295 295 295 295 295 296 295 296 296 296 296 296 296 295 295 295 295 295
322 321 319 316 313 311 310 310 310 310 310 310 309 309 309 309 309 309 308 308 308 309 311 314 318 322 323 323 322 322 322 321 321 321 321 320 320 320 320 319 318 318 318 318 318 318 318 318 318 317 317 316 313 310 307 303 300 300 300 298 297 298 297 296 296 295 295 295 295 295 295 295 295 295 295 296 296 296 296 295 295 295 294 294 294
322 322 322 321 319 316 313 312 311 311 312 311 310 309 309 310 310 309 309 308 308 309 311 314 318 320 322 323 323 322 322 322 321 320 320 320 320 320 320 320 319 318 318 318 317 317 317 318 317 317 317 317 316 314 312 307 301 299 300 298 296 297 298 296 296 295 295 295 295 295 295 295 295 295 295 296 296 295 295 296 295 295 295 294 294
322 323 323 323 323 321 318 316 314 313 312 312 312 311 310 310 311 310 310 309 309 309 311 313 316 319 321 323 323 323 323 324 323 321 320 320 320 320 320 320 320 319 319 318 318 318 317 317 317 317 317 316 316 316 315 313 307 301 299 297 296 296 297 297 296 295 295 295 295 294 294 294 294 294 295 296 296 296 296 296 296 295 295 294 294
323 324 324 324 324 323 323 321 319 317 315 314 313 312 312 311 311 311 310 309 309 310 311 313 315 318 321 323 323 322 323 323 323 322 321 321 320 320 320 320 320 320 319 319 319 318 318 318 317 317 317 316 315 315 314 314 313 308 302 297 296 296 295 296 296 297 296 294 294 294 294 294 294 294 294 295 296 296 296 296 296 295 295 294 294
320 322 324 324 324 324 324 323 323 322 320 318 316 315 313 312 311 312 311 311 310 310 311 312 314 315 319 323 323 323 322 322 322 323 322 322 321 320 320 320 320 320 320 320 320 320 319 318 318 317 317 316 316 315 315 314 314 313 309 301 296 296 295 295 295 298 300 298 294 294 294 294 294 294 294 295 296 297 297 297 296 295 295 294 294
315 317 320 322 324 325 324 324 325 324 324 323 322 319 317 314 313 312 312 312 310 310 311 312 314 315 316 320 322 323 323 322 322 323 322 322 321 321 321 321 321 321 321 321 320 320 320 319 318 319 318 317 316 315 315 315 314 314 313 308 300 296 295 295 294 296 301 302 297 294 294 294 294 294 294 294 296 298 298 298 297 296 296 295 294
317 316 316 317 319 322 324 325 325 325 325 325 325 323 321 319 316 313 312 313 312 310 311 312 314 315 315 316 318 320 321 322 323 323 323 322 322 321 321 321 321 321 321 321 321 320 320 319 319 320 319 318 318 317 316 316 315 315 314 313 308 301 296 295 295 294 298 303 301 295 294 294 293 293 293 294 295 297 299 299 299 298 297 296 294
321 320 318 316 316 317 320 322 324 326 326 326 326 325 324 323 321 317 314 312 312 312 311 313 315 316 315 315 316 318 319 320 321 322 323 323 322 322 321 321 321 321 321 321 321 320 319 319 320 321 321 320 319 318 317 316 316 316 315 314 313 308 301 296 295 294 294 298 298 296 294 293 293 293 293 293 294 297 299 300 301 300 299 298 295
323 322 321 319 318 317 317 318 320 323 325 325 326 325 325 325 324 322 319 315 314 313 312 313 315 315 315 316 316 317 319 320 321 322 323 323 323 323 322 322 322 321 321 321 320 320 319 320 320 321 321 321 320 319 318 317 317 316 316 315 315 313 309 301 296 295 293 293 294 294 294 293 293 293 293 293 294 296 298 301 302 302 301 299 296
323 322 322 322 321 320 319 318 317 319 320 322 323 324 325 325 325 325 324 321 317 314 313 313 314 315 316 317 317 317 319 320 321 321 322 323 323 323 322 322 322 322 321 321 320 320 319 320 320 321 320 320 321 321 320 319 318 317 317 316 315 315 313 307 300 297 295 294 293 293 293 293 293 293 293 293 293 294 297 301 303 303 302 300 296
323 323 323 322 322 322 321 320 319 319 318 319 320 321 323 324 324 324 324 324 322 318 316 314 313 314 317 318 317 317 317 318 319 320 321 322 322 322 322 322 322 322 321 321 320 320 320 320 320 321 321 321 321 321 321 320 319 319 318 317 316 315 314 311 305 300 298 295 293 293 293 293 293 293 293 293 293 294 295 299 303 304 303 300 296
323 323 323 323 323 323 323 322 322 321 321 320 319 319 321 322 322 322 323 323 323 322 320 318 315 313 315 318 318 317 317 317 318 319 319 320 321 322 322 322 322 322 321 321 321 320 320 320 320 320 321 322 322 322 322 322 321 320 320 318 317 315 314 312 307 304 301 297 294 293 293 292 292 292 292 292 293 293 294 297 302 304 302 300 295
323 322 322 322 322 322 323 323 323 323 322 322 322 321 321 322 322 321 321 322 322 322 322 322 320 316 315 315 316 317 318 318 320 320 319 320 321 321 322 322 322 322 322 321 321 321 321 320 320 320 321 322 322 322 322 322 322 321 321 319 318 316 314 313 310 309 307 301 295 293 292 292 292 292 292 292 293 293 293 296 301 303 302 299 295
321 322 322 322 322 322 322 323 323 323 323 323 323 323 323 323 323 322 322 322 321 321 322 322 323 320 316 315 315 316 317 318 320 321 321 321 321 321 322 322 322 322 322 322 321 321 321 321 320 320 320 321 321 322 322 322 322 322 321 320 319 317 315 314 313 312 310 305 299 295 292 292 292 292 292 292 292 293 293 295 301 303 301 299 295
321 321 321 322 322 322 322 323 323 324 324 324 324 324 324 324 324 324 324 323 323 322 322 321 323 323 321 319 317 316 316 317 319 321 321 322 321 321 322 322 322 322 322 322 322 321 320 321 321 320 320 320 320 321 321 322 321 321 321 320 319 318 316 315 315 313 311 309 305 298 293 292 292 292 292 293 292 293 293 295 300 303 301 299 295
320 320 321 321 322 322 322 323 323 324 324 325 325 325 325 325 325 325 325 325 324 324 323 322 322 323 323 323 321 318 318 318 319 319 319 322 322 320 321 322 322 323 322 322 322 321 321 320 320 321 320 320 320 321 322 322 321 321 321 320 320 318 317 316 316 314 312 311 309 303 296 292 292 292 292 293 293 293 293 294 299 302 301 299 295
319 320 321 321 322 322 323 323 323 324 324 325 325 325 325 325 325 326 326 326 325 324 324 323 323 323 322 323 323 322 321 321 321 320 319 322 322 320 321 322 322 322 322 322 322 321 321 321 321 321 320 319 320 321 322 322 321 321 321 320 320 319 318 317 316 315 313 311 310 307 301 295 293 292 292 293 293 293 293 294 299 302 301 298 296
319 320 320 321 321 321 322 323 323 323 324 325 325 326 326 326 325 326 326 326 326 325 325 324 324 323 323 323 323 322 322 322 322 321 321 322 321 321 321 322 322 322 322 322 322 322 321 321 321 320 319 319 320 321 321 321 321 320 320 320 320 319 318 317 317 315 312 311 309 308 304 299 296 294 293 293 293 293 293 294 299 302 301 299 298
319 320 320 320 320 321 321 322 322 323 324 324 325 326 326 326 326 326 326 326 326 326 325 325 325 324 324 323 323 322 322 322 322 322 322 322 321 321 321 321 321 321 321 322 322 322 322 322 321 320 320 320 320 321 321 320 319 319 319 320 320 319 318 318 317 314 312 310 309 308 305 302 299 296 295 294 293 293 293 295 299 302 301 300 298
319 320 320 320 320 321 320 321 322 322 323 324 324 325 326 326 326 326 326 326 326 326 326 326 325 325 324 324 324 323 323 323 322 322 322 322 321 321 321 321 321 321 321 322 322 322 322 321 321 320 320 320 320 321 322 320 318 319 319 320 320 319 318 318 317 315 313 312 311 309 306 304 302 300 298 296 295 294 294 295 299 302 301 300 297
319 319 320 320 320 320 321 321 321 322 323 323 323 324 325 326 326 325 326 326 326 326 326 326 326 326 325 325 324 324 324 323 323 323 322 322 322 321 321 321 322 321 321 322 322 322 321 320 320 320 319 320 321 322 323 321 321 320 319 319 319 319 318 317 316 315 314 313 312 310 308 305 304 302 300 298 296 294 294 295 300 302 301 299 296
319 319 319 320 320 320 321 321 321 321 321 322 323 324 325 325 325 325 325 326 326 326 326 326 326 326 326 325 325 325 325 324 324 323 323 323 322 322 321 321 321 320 320 320 321 321 321 321 321 321 321 322 322 323 323 322 321 320 319 318 318 318 317 317 317 316 315 314 312 311 308 306 304 302 301 299 297 295 294 296 300 302 300 297 295
316 317 317 317 318 319 319 320 319 320 320 321 322 323 324 325 325 325 325 325 326 326 326 326 326 326 326 326 325 325 325 325 324 323 323 322 322 321 321 320 320 320 319 319 321 321 322 322 321 321 321 322 323 323 322 321 321 320 319 318 317 317 317 317 317 317 316 314 313 311 307 305 304 303 302 300 297 295 294 296 300 301 299 296 296
313 313 313 314 314 314 316 316 316 317 319 319 320 322 323 324 324 324 325 325 325 326 326 326 327 327 327 326 326 325 325 324 324 323 322 321 321 320 320 320 319 320 319 319 320 321 321 321 320 321 322 322 322 322 322 321 320 320 319 318 317 317 317 317 317 317 316 315 313 310 307 305 304 303 302 300 297 295 295 296 300 301 298 296 296
314 313 312 311 311 311 312 313 313 314 315 316 317 318 319 321 322 323 324 324 325 325 326 326 327 327 327 326 326 325 324 323 323 322 321 321 320 320 321 320 319 319 319 319 320 321 320 321 321 321 322 322 321 321 321 321 320 320 320 318 317 316 316 316 316 316 315 314 313 310 307 305 304 303 302 300 296 295 295 296 300 300 297 295 296
316 315 314 312 311 310 310 310 310 311 311 312 313 314 315 317 319 321 323 324 324 325 326 326 327 327 327 326 326 325 324 323 322 322 321 320 320 321 321 320 319 319 321 322 322 323 323 322 321 321 321 321 321 320 320 320 320 320 320 318 317 316 316 316 316 315 315 314 313 311 308 306 305 303 302 299 296 295 295 297 300 300 296 295 296
318 317 316 314 312 311 310 310 310 310 309 310 311 312 313 314 316 319 321 323 324 325 325 326 326 326 326 326 325 325 324 323 322 322 321 320 321 321 320 319 320 321 321 322 323 323 323 322 321 321 321 320 320 319 319 320 319 319 319 317 316 316 316 316 316 315 314 314 313 311 310 308 305 303 301 298 295 295 296 299 300 299 296 295 296
318 318 317 316 314 312 311 310 310 310 309 309 309 310 311 312 313 317 320 322 323 324 325 325 325 325 325 325 324 323 323 322 322 321 320 320 322 322 321 320 321 321 321 321 322 323 323 322 322 322 321 320 319 318 319 318 318 319 318 317 316 316 316 316 315 314 314 313 313 312 310 308 306 303 300 297 295 296 298 299 300 298 295 294 296
318 318 317 317 316 314 312 311 310 310 310 310 309 309 309 310 312 314 317 321 323 324 324 324 324 324 324 323 323 322 322 322 321 321 321 321 323 323 323 322 322 323 324 323 322 321 321 322 322 322 322 321 319 319 319 318 318 319 318 316 315 315 315 315 314 314 313 312 311 310 310 308 306 303 300 296 295 296 298 299 300 298 295 294 296
318 318 318 317 316 315 313 311 310 310 310 310 310 309 309 309 310 312 315 318 321 322 323 323 323 323 323 322 322 322 322 320 320 321 321 321 322 322 322 321 322 324 325 324 322 321 320 321 322 322 321 321 320 320 320 319 319 318 317 315 314 315 315 315 314 314 313 312 311 310 309 308 305 303 299 296 296 297 298 299 300 297 294 295 296
318 318 318 318 317 316 314 312 311 310 310 310 310 310 309 308 309 311 314 316 318 320 321 321 322 322 322 322 321 321 321 320 321 322 321 320 322 322 321 321 323 324 324 323 323 322 320 321 322 322 321 321 321 321 320 319 318 318 316 315 315 315 315 315 314 314 313 311 310 309 309 308 305 301 298 296 297 299 299 299 299 296 294 295 296
317 318 318 318 318 317 315 313 311 310 310 310 310 310 309 308 308 309 312 315 317 319 320 321 321 321 321 321 321 321 320 319 321 322 322 321 321 323 323 323 323 323 322 322 322 321 320 320 321 322 321 320 319 318 317 316 317 317 316 316 316 315 315 315 314 314 313 311 310 309 308 307 304 300 296 296 298 299 298 299 298 296 295 295 296
317 317 318 317 317 317 315 313 311 310 310 309 309 310 310 309 308 308 309 313 316 318 319 320 321 321 321 321 321 320 320 321 321 320 320 321 321 321 323 323 321 321 322 322 321 320 320 320 320 320 319 318 317 316 315 316 317 317 316 315 315 314 315 314 314 313 312 311 310 309 307 305 303 299 296 296 298 299 298 298 297 295 295 295 296
317 317 317 317 317 316 315 313 311 310 310 309 309 310 309 309 308 308 308 310 313 316 318 319 320 320 321 321 320 319 319 320 321 318 318 321 323 322 322 322 321 320 321 321 320 319 319 319 318 318 317 318 318 317 317 317 317 316 315 315 314 313 313 313 312 311 311 310 309 307 305 302 300 297 296 296 298 299 299 298 296 295 295 295 295
316 316 316 316 316 316 315 313 311 310 310 310 309 309 309 309 309 308 308 309 311 313 315 318 319 319 319 319 319 318 316 318 321 320 319 320 323 322 320 321 322 321 319 319 319 320 319 318 318 318 318 318 319 318 318 318 316 315 315 314 313 312 311 310 310 309 308 308 308 306 303 300 297 295 295 297 298 299 298 296 295 295 295 295 295
315 315 316 316 316 316 315 313 312 310 310 310 309 309 309 309 309 309 309 308 309 310 312 314 315 316 317 318 319 318 318 320 323 320 317 318 321 321 320 320 321 320 319 318 319 320 319 319 319 319 319 319 319 318 318 318 315 314 314 313 312 311 309 309 308 307 307 307 306 305 302 299 296 295 296 298 299 299 298 296 295 294 294 294 295
314 314 315 315 315 316 316 315 313 311 310 310 310 310 310 310 309 309 309 309 309 309 308 310 311 311 312 314 316 318 319 321 321 317 315 317 320 320 319 319 319 319 318 318 319 320 320 320 319 319 319 319 319 318 317 317 315 313 313 312 311 310 309 309 308 307 307 307 306 304 301 298 295 295 297 299 299 299 298 296 294 294 294 294 294
314 314 314 314 314 315 315 315 314 313 311 310 310 310 311 310 310 310 309 309 309 309 309 309 309 309 309 310 313 317 318 317 316 316 317 319 319 317 316 317 318 317 317 318 320 320 320 320 320 319 319 319 318 318 317 316 315 313 312 311 310 309 308 308 307 307 307 307 306 304 300 297 295 295 297 298 298 298 297 295 294 293 293 294 294
313 313 313 314 314 314 314 315 315 315 313 312 311 310 311 311 310 310 310 309 309 309 309 309 308 309 310 310 311 314 314 312 312 315 319 321 319 317 315 316 318 318 318 319 319 318 318 319 320 320 319 318 318 317 316 316 314 313 311 310 309 308 307 307 307 306 306 307 307 303 299 297 295 294 296 297 298 297 296 294 293 293 293 294 294
Wind_Speed
15 16 17 17 16 16 16 16 15 15 15 15 14 13 13 13 13 12 11 10 10 10 9 7 6 5 5 5 5 4 3 4 3 3 3 2 3 6 10 12 14 13 12 10 7 7 9 10 11 10 7 6 8 7 5 4 2 2 2 3 3 4 5 5 6 7 7 8 9 10 10 10 10 11 11 11 12 12 13 13 13 13 12 12 13
14 15 16 17 17 17 17 16 15 15 15 15 15 15 14 14 14 13 12 11 11 11 10 8 7 6 6 6 6 5 4 4 4 4 4 3 4 5 6 10 13 14 14 13 10 9 10 11 12 13 9 6 8 8 6 5 3 2 2 3 3 4 4 5 5 6 7 8 9 9 9 9 10 10 11 11 12 12 12 12 12 12 12 12 12
13 14 15 17 18 18 17 17 16 15 15 16 16 16 16 16 15 14 13 13 12 12 12 10 9 7 6 7 7 6 5 5 5 5 5 4 4 5 5 7 11 13 14 15 13 12 12 11 11 13 11 7 8 9 8 6 5 4 4 3 3 4 4 4 5 6 7 8 9 9 9 9 10 10 11 11 11 11 11 12 12 12 13 13 12
16 15 15 17 18 18 18 17 16 16 16 17 18 17 17 17 16 15 15 14 13 14 14 12 10 8 6 8 8 6 6 6 6 7 6 5 5 5 5 6 8 11 12 15 15 15 14 13 11 12 11 8 9 9 8 7 6 5 5 3 4 5 4 4 5 5 6 7 8 9 9 9 10 10 10 11 11 11 11 12 13 13 13 14 14
19 18 18 18 18 18 18 17 16 17 18 19 20 19 18 18 18 17 16 16 15 15 16 15 13 9 8 9 9 8 7 7 7 8 8 7 6 6 6 7 7 8 11 13 15 17 17 15 12 13 13 11 10 9 9 9 7 7 6 4 5 5 4 4 5 5 6 7 8 9 9 10 10 10 10 10 11 11 12 12 13 13 14 15 16
21 20 20 20 19 19 18 18 17 17 19 20 20 20 20 19 19 18 18 18 17 17 16 16 14 9 9 12 11 9 8 7 8 8 9 9 7 7 8 7 6 6 9 12 15 19 19 17 13 13 15 13 10 9 9 9 8 9 7 5 7 7 4 4 5 5 6 7 8 9 10 10 10 10 10 10 11 11 12 13 13 14 15 15 17
23 22 22 22 21 20 19 19 18 19 20 20 20 20 21 21 20 19 19 19 18 18 18 16 14 10 10 11 10 9 8 8 9 9 10 11 9 9 8 8 7 6 8 10 14 20 21 20 16 15 16 14 10 10 10 11 12 12 8 7 9 8 6 5 5 5 6 7 8 9 10 10 10 10 10 11 11 12 13 13 14 15 16 16 17
24 24 24 24 23 21 21 20 20 20 21 21 20 21 22 22 21 21 21 21 20 19 19 17 16 13 11 11 10 10 10 9 10 10 10 11 11 10 9 9 9 8 8 8 11 18 21 22 20 19 19 17 14 13 14 15 16 15 12 10 10 9 8 7 6 6 6 7 8 9 9 10 10 10 10 11 11 12 13 14 15 15 16 17 17
24 25 25 26 25 23 22 22 22 22 22 21 22 22 22 22 22 22 22 22 21 20 20 19 17 14 12 12 12 12 11 10 10 11 11 13 12 12 10 10 11 10 9 8 10 14 18 21 23 23 22 21 19 18 19 19 18 18 16 14 13 10 9 9 7 7 7 8 8 9 9 10 10 10 10 11 12 13 14 15 16 16 17 17 18
25 26 26 27 26 25 25 25 24 24 23 23 24 24 23 22 23 23 23 22 22 22 21 20 18 14 12 12 13 14 13 11 11 12 12 13 13 13 12 11 13 13 11 10 11 12 15 17 19 21 23 23 22 22 22 21 20 20 18 18 16 12 10 10 9 8 9 8 9 9 10 9 10 11 11 11 12 13 14 15 16 17 18 18 18
26 27 27 28 28 27 27 27 26 26 26 25 25 25 24 23 23 24 24 23 23 23 22 20 17 15 14 14 15 15 14 13 12 12 13 13 13 13 13 13 14 15 14 14 13 13 15 15 16 19 21 23 23 24 24 23 22 21 20 20 19 16 13 11 11 10 10 10 9 10 10 10 10 11 11 12 12 13 14 15 16 17 18 19 19
29 28 28 28 29 28 28 29 28 28 28 27 27 26 25 25 24 24 25 24 24 24 24 22 19 15 15 16 15 16 17 17 15 14 15 15 15 15 16 16 16 16 17 18 17 16 17 17 16 18 20 22 23 23 24 24 24 23 22 21 20 20 17 12 12 12 11 11 11 11 11 10 10 11 11 12 13 13 14 15 16 17 18 19 20
31 31 30 30 30 29 29 30 30 29 29 28 27 27 27 26 25 24 25 25 26 25 25 25 21 16 15 17 17 17 18 19 18 17 17 16 16 17 18 17 18 17 16 18 20 19 18 18 18 19 20 22 22 22 23 24 24 24 23 22 21 21 20 16 14 14 14 12 12 12 11 11 11 11 11 12 13 13 14 15 16 17 18 19 20
34 34 33 32 31 30 30 30 31 30 30 29 28 28 28 28 27 26 25 26 27 27 26 26 25 20 15 15 16 17 17 18 18 18 18 19 18 19 18 17 18 18 16 17 19 20 19 19 20 21 22 24 23 22 24 24 25 25 24 24 23 22 22 20 17 16 15 14 14 13 12 12 12 11 12 12 13 14 15 16 17 18 19 20 20
36 36 36 35 34 32 32 32 32 32 31 31 30 29 29 29 28 27 26 27 28 29 29 29 28 23 17 16 16 14 15 19 20 19 18 18 19 20 19 18 17 18 17 16 17 19 20 21 22 23 24 25 25 24 25 25 25 25 25 26 25 24 23 22 20 19 17 15 15 14 13 12 12 12 12 13 13 14 15 16 17 18 19 20 21
36 37 37 37 36 35 34 34 34 34 33 33 32 31 31 30 30 28 28 29 30 30 31 31 30 25 18 14 14 13 15 17 17 17 16 17 18 19 18 17 17 18 16 16 17 17 18 19 21 22 24 25 26 25 25 25 26 26 25 26 26 25 25 24 23 21 19 17 15 15 14 14 13 13 13 13 13 14 16 16 17 18 19 20 21
36 37 38 38 38 37 37 37 36 36 36 36 35 34 33 32 31 30 29 30 31 31 31 32 33 31 23 16 12 13 15 14 13 13 14 17 19 19 18 17 18 18 17 16 17 17 17 17 18 20 22 24 25 25 25 24 26 26 26 25 26 27 26 25 24 22 20 18 17 16 15 15 14 14 13 13 14 15 16 17 18 19 20 21 22
35 36 38 39 39 38 38 38 36 35 36 36 37 36 36 34 33 32 32 31 31 32 33 33 33 34 31 25 19 16 13 10 10 11 13 17 20 21 21 20 20 20 19 19 18 19 19 19 18 19 20 22 23 24 24 24 25 25 25 25 26 27 27 26 25 24 20 18 18 17 17 17 15 14 14 14 15 15 17 18 19 19 20 21 22
35 36 37 38 38 38 38 38 36 34 33 34 36 37 37 36 35 34 33 32 32 34 35 34 34 34 34 33 30 27 22 18 15 13 13 17 19 21 22 22 22 23 22 21 20 21 21 21 21 21 21 21 22 23 24 24 25 24 23 25 26 26 27 27 27 26 22 18 18 19 19 18 16 15 15 15 15 16 17 19 20 20 21 22 22
35 35 36 36 37 38 37 37 36 33 31 33 34 35 35 35 36 36 35 35 34 34 35 35 35 36 35 34 33 33 32 31 27 22 20 19 19 22 24 24 26 28 28 26 25 25 24 23 23 24 24 24 23 23 23 24 25 23 22 23 24 24 26 28 28 27 25 21 21 22 20 19 18 16 16 16 16 17 18 19 20 21 22 22 23
35 35 35 35 36 37 36 36 36 33 33 34 33 33 34 33 34 37 36 37 37 36 35 36 36 37 37 36 34 33 33 33 31 28 28 26 24 25 27 28 30 32 33 30 28 27 25 23 23 25 27 27 26 24 24 24 24 23 22 22 23 23 24 27 29 28 27 26 25 24 22 20 19 18 17 17 17 17 18 20 21 22 22 23 23
38 36 36 36 36 36 37 37 36 35 35 35 34 33 33 32 33 35 36 37 38 38 37 36 37 37 37 38 37 35 33 32 30 29 29 29 30 29 28 29 32 34 34 34 31 29 28 26 24 25 26 27 28 27 26 26 24 23 23 22 22 22 23 25 27 28 28 27 27 26 24 23 21 20 19 18 18 18 19 20 22 22 22 22 23
40 39 38 37 37 37 37 37 37 37 36 36 35 34 32 30 30 32 33 35 37 39 38 38 38 38 37 38 40 40 37 36 34 32 30 28 29 30 29 28 31 34 36 36 33 31 31 30 28 27 26 27 29 29 29 28 26 25 24 23 23 23 24 25 26 27 27 28 28 27 26 24 23 21 20 19 19 19 20 21 22 22 22 22 22
42 41 40 38 38 38 38 38 38 38 37 36 36 35 33 30 28 30 31 32 35 37 38 39 40 41 40 39 41 41 41 41 39 36 36 33 29 28 27 25 27 31 33 33 33 31 31 31 30 28 28 29 30 31 31 31 30 29 28 26 25 25 25 25 26 26 27 28 29 28 27 26 24 22 21 20 20 20 21 21 22 22 22 22 22
43 43 41 39 38 38 39 38 38 38 37 35 35 35 34 33 31 32 32 32 33 35 37 39 40 42 42 42 42 42 42 41 39 38 40 38 33 31 28 26 26 28 30 32 33 32 31 31 29 28 29 30 31 32 32 32 32 32 32 30 27 27 27 27 26 26 27 28 29 29 28 27 25 23 22 22 21 21 21 22 22 22 22 21 21
43 42 40 39 38 37 36 36 36 37 36 34 32 32 33 33 33 33 34 34 33 34 35 38 39 40 42 44 44 44 44 43 39 37 38 38 37 34 29 27 27 28 31 32 33 35 36 33 28 27 29 29 30 32 31 30 31 32 33 33 31 30 30 28 27 27 27 28 29 29 29 28 26 24 24 23 22 22 22 22 23 22 22 21 21
41 40 39 38 38 36 34 34 34 35 36 34 32 31 31 32 33 33 34 34 33 32 34 36 37 39 42 44 44 44 46 45 42 40 39 38 39 36 30 29 29 29 31 32 33 37 39 35 30 28 29 29 29 30 29 28 30 31 33 35 34 33 32 30 28 29 29 29 29 28 29 28 26 25 25 25 23 23 23 23 23 23 22 21 21
39 39 38 38 37 35 33 33 33 33 34 34 34 33 32 31 32 33 33 33 33 33 34 35 36 38 40 41 42 44 45 44 43 43 40 37 38 37 33 31 30 29 29 31 33 37 39 35 30 28 28 28 28 28 28 28 29 31 33 35 36 34 33 31 30 30 30 30 29 28 28 28 27 27 27 26 25 24 23 23 23 23 22 21 21
36 36 37 36 35 34 33 33 32 33 33 34 34 35 34 32 32 33 33 33 34 35 35 36 36 37 38 39 40 43 44 42 42 43 41 37 36 36 34 32 33 32 31 31 32 35 38 35 29 27 27 27 27 26 25 26 27 29 31 33 35 35 33 31 31 31 31 30 30 29 28 28 28 28 27 27 26 24 24 24 24 24 22 21 21
34 34 35 35 34 33 33 33 32 33 33 33 34 35 35 34 33 33 33 33 34 35 36 38 38 37 38 39 40 41 43 42 42 41 41 39 37 36 34 34 34 35 35 34 33 34 35 34 30 28 28 26 24 24 23 24 24 25 26 28 29 30 30 30 30 31 31 31 31 30 29 28 28 29 28 28 27 25 25 24 24 24 23 22 21
31 32 33 33 33 32 33 33 33 33 33 33 33 34 36 36 34 34 34 34 35 36 37 38 39 39 40 39 40 41 42 41 40 40 40 40 39 37 35 35 35 37 37 36 36 34 32 32 31 31 30 28 25 26 26 25 24 23 23 24 24 24 26 28 30 32 32 31 31 31 30 29 29 29 29 28 27 26 25 25 25 25 23 22 21
29 30 31 32 32 32 32 32 32 33 33 33 33 34 36 37 36 36 36 35 36 37 38 39 39 40 41 41 41 42 42 40 40 40 40 39 39 38 36 36 36 36 36 36 38 37 34 34 34 33 32 30 29 29 29 27 25 23 21 21 21 21 22 25 28 31 31 31 32 32 31 30 29 30 29 29 27 26 26 25 25 24 23 21 20
28 30 30 30 31 31 32 32 32 32 32 33 34 34 35 38 37 37 37 37 38 39 39 40 40 41 42 42 41 41 41 40 40 40 39 38 37 37 36 35 36 36 36 36 38 38 37 36 36 34 33 32 31 31 31 30 29 25 22 21 21 20 22 24 25 28 29 30 32 32 31 30 30 30 30 29 27 26 26 25 25 24 22 21 20
26 28 29 29 30 31 31 32 32 32 32 33 34 34 36 38 38 38 39 39 39 39 40 41 41 41 42 42 42 41 40 39 40 39 38 37 36 36 36 37 37 38 36 36 37 38 38 37 36 35 34 35 34 32 32 32 29 25 25 23 21 21 22 23 23 25 28 30 32 32 31 31 31 30 30 29 27 26 26 25 25 23 22 21 20
24 26 26 27 29 30 31 32 32 32 33 34 34 35 37 38 39 40 40 40 40 41 41 42 42 41 41 42 42 42 41 40 40 39 38 38 37 38 38 38 38 38 36 35 37 38 38 37 36 36 36 37 36 34 33 29 25 24 25 23 20 20 22 23 24 25 27 29 31 31 31 32 31 30 30 29 27 27 26 26 25 23 21 21 20
21 24 25 26 27 29 30 32 32 32 34 35 35 36 37 38 40 41 41 42 42 42 42 43 43 42 42 42 43 43 42 41 41 39 38 39 39 38 38 36 37 37 35 34 35 36 37 37 36 36 36 36 36 35 32 27 23 24 24 23 21 21 23 24 24 25 26 28 30 32 33 32 31 30 29 29 28 27 27 26 25 23 21 21 20
19 21 23 25 26 28 29 30 32 32 33 34 36 36 37 38 40 41 42 42 43 43 43 43 43 42 42 43 43 42 41 41 41 40 40 40 39 37 36 35 34 33 32 31 31 32 34 36 37 37 37 37 36 34 32 27 25 25 26 25 23 23 25 25 24 25 25 27 30 33 34 33 31 30 29 28 27 27 27 26 24 23 21 21 20
20 21 22 24 25 27 28 29 31 32 33 34 36 37 38 38 40 41 41 42 43 43 43 43 43 42 42 43 43 42 42 42 41 40 39 38 36 35 35 34 32 31 31 31 32 34 37 39 39 38 38 37 35 33 31 29 28 27 27 26 25 25 26 25 25 26 27 28 31 33 34 33 31 30 29 28 27 27 27 26 24 23 22 21 20
23 24 24 25 26 27 28 29 30 31 33 34 36 37 38 38 39 40 41 42 43 43 43 43 42 42 42 43 43 42 42 40 39 38 36 34 33 32 32 32 32 31 31 32 32 35 39 38 35 34 33 33 33 31 29 29 29 28 28 28 27 27 27 26 25 25 26 28 30 32 33 33 32 30 29 27 27 27 27 26 25 23 22 21 20
26 27 27 28 28 28 28 29 30 31 33 35 37 38 38 39 40 41 41 42 42 43 43 43 42 42 42 43 43 42 41 39 38 37 34 32 33 33 31 31 32 33 34 34 32 32 35 36 34 33 32 32 32 31 30 30 30 30 30 29 29 28 27 26 25 24 25 27 29 30 31 32 32 30 28 27 27 27 26 25 25 24 22 22 21
30 30 30 31 31 30 30 29 30 31 33 35 36 37 39 39 40 41 41 42 43 43 43 43 43 43 42 43 43 41 40 39 37 35 33 32 33 35 34 33 34 36 36 36 33 31 33 37 36 35 35 35 33 31 30 32 31 29 28 27 27 27 26 25 24 23 25 27 28 30 31 31 31 29 28 27 27 27 26 25 25 23 22 22 21
33 32 32 33 33 33 32 31 30 31 33 35 36 37 38 39 40 40 41 42 42 42 42 42 42 43 42 42 42 40 39 38 36 34 34 34 34 34 34 34 36 37 37 36 34 33 35 38 37 36 37 36 34 33 32 32 29 26 24 23 24 25 26 26 25 24 25 27 28 29 29 29 29 28 27 27 27 26 26 25 24 23 22 23 22
34 34 35 36 35 35 34 34 33 32 33 34 35 36 37 38 38 39 40 41 41 41 41 41 42 42 41 41 40 39 38 37 36 35 34 34 35 34 35 36 37 36 35 34 33 33 36 38 36 34 35 34 33 34 34 32 29 25 23 22 23 26 27 28 27 26 26 25 25 27 28 29 28 28 27 27 26 25 25 25 24 23 23 23 22
35 36 37 38 38 37 37 36 35 33 32 32 33 35 36 36 37 38 39 40 40 41 41 41 41 41 41 40 39 39 38 36 36 37 36 35 35 35 35 35 34 33 33 34 34 35 38 39 37 35 34 32 32 34 34 32 28 25 22 23 26 28 29 29 29 27 25 23 22 24 26 27 28 27 27 27 26 24 25 24 24 23 23 22 22
36 38 39 39 39 39 38 38 36 33 31 31 31 32 33 34 35 36 37 38 39 41 41 42 42 42 41 40 40 40 39 36 36 37 37 37 36 36 36 36 34 33 33 35 36 36 36 36 36 34 31 29 29 29 29 27 25 24 23 25 28 29 30 29 27 26 25 23 23 24 24 25 27 26 26 27 25 24 25 24 24 24 23 22 22
37 39 39 40 40 39 38 38 36 34 32 30 29 29 31 32 32 33 35 37 38 40 41 42 43 43 42 42 42 41 39 38 37 36 36 37 36 35 36 37 38 38 36 34 34 34 33 33 33 30 28 27 26 25 24 24 24 23 23 25 26 27 27 26 25 26 26 24 24 24 23 23 25 25 26 26 24 24 24 24 24 24 23 22 22
36 38 39 40 40 39 38 38 37 36 33 29 28 28 29 29 30 31 33 34 37 39 40 41 43 43 43 42 42 41 38 36 37 36 36 36 36 36 37 37 38 40 40 37 34 34 34 32 30 29 28 28 27 26 25 24 23 21 21 23 23 22 22 23 25 26 26 25 25 25 24 23 23 24 25 25 24 23 23 23 24 23 23 22 22
34 36 38 39 39 39 38 38 38 38 34 29 27 28 28 28 29 30 31 33 35 37 39 41 42 43 43 42 43 42 39 37 38 36 35 35 36 38 39 38 37 38 38 36 35 35 35 32 31 31 31 29 29 29 28 26 23 21 22 24 25 24 24 25 26 27 27 26 26 25 24 24 23 23 25 25 24 23 23 22 23 23 23 22 21
32 34 36 38 38 39 39 38 38 38 36 32 29 28 28 28 29 30 31 33 34 36 38 39 40 41 42 43 43 42 41 41 39 36 34 35 37 38 39 40 40 39 37 36 36 37 35 34 33 33 32 30 28 29 29 28 24 24 26 27 28 28 28 28 29 29 28 28 27 26 25 25 25 25 26 25 23 23 23 22 23 23 23 22 21
31 32 35 37 39 39 39 39 38 39 38 35 32 31 30 30 30 31 32 34 35 36 36 36 38 39 41 42 41 42 44 44 41 37 35 38 41 40 38 38 39 38 37 36 37 36 35 34 35 34 33 31 29 29 31 30 27 27 29 29 28 28 28 29 29 29 29 29 28 26 25 26 28 28 28 26 24 23 23 22 23 23 23 21 20
31 32 34 37 39 40 40 40 39 40 40 38 35 34 34 33 32 32 34 36 37 37 36 35 36 38 40 41 41 42 43 42 39 37 34 36 40 39 35 34 35 37 38 36 35 34 35 36 37 36 34 31 30 30 32 31 29 28 28 27 27 27 27 27 27 28 30 30 28 27 27 28 29 30 30 27 24 23 22 22 23 22 21 20 19
Wind_Direction
224 227 232 235 237 238 240 242 243 242 245 247 247 246 245 247 249 252 257 264 271 277 282 281 279 273 266 274 273 265 267 272 262 254 261 237 245 237 211 213 216 212 216 213 206 209 231 254 264 266 252 239 235 224 229 239 262 299 321 315 313 338 343 342 358 6 5 3 2 2 2 1 359 359 3 7 10 10 8 6 6 9 10 14 15
225 227 232 235 238 240 243 245 246 246 246 246 245 244 244 245 248 252 256 261 266 271 275 272 273 269 260 263 260 257 261 266 252 244 261 238 239 258 228 218 221 224 224 221 214 205 221 237 252 265 258 247 245 230 232 242 250 273 281 287 312 332 329 336 353 359 358 358 357 356 357 356 355 356 0 4 6 7 5 4 4 7 8 11 10
226 227 232 235 237 240 244 246 246 247 246 245 244 242 243 245 248 252 255 260 262 264 267 267 269 268 260 261 259 254 250 253 251 242 246 251 258 269 259 234 226 229 227 228 224 209 218 223 232 257 257 257 261 241 234 237 242 252 258 277 309 312 312 333 346 350 353 353 351 349 350 352 352 353 356 359 359 1 2 2 2 3 4 3 4
228 229 231 235 237 239 242 244 245 246 245 244 245 244 244 246 249 252 255 258 259 260 263 265 263 257 249 254 257 253 247 245 248 246 237 237 249 259 271 262 239 233 231 232 224 212 220 220 221 245 248 257 267 252 234 228 236 244 249 270 293 295 305 329 336 342 347 347 345 343 345 347 349 350 350 353 353 354 357 360 0 358 358 355 356
232 233 234 237 239 241 242 243 243 244 245 246 247 247 246 247 249 251 252 254 256 257 261 266 263 254 243 247 252 254 255 250 248 251 243 234 236 242 251 264 258 240 233 232 222 214 218 222 223 234 244 256 260 253 238 229 233 241 252 274 281 287 305 320 325 334 338 339 337 336 340 343 345 346 345 345 347 349 351 355 357 355 353 350 349
236 237 239 241 242 243 244 243 242 242 245 248 249 249 249 249 250 250 252 253 255 255 258 265 267 258 243 245 250 253 254 252 251 251 245 242 238 235 237 251 263 254 236 227 222 217 216 223 221 226 248 254 249 258 252 243 247 249 259 276 278 285 298 309 317 324 328 329 330 331 335 338 340 340 339 339 341 345 347 350 352 351 349 347 347
242 242 244 245 244 244 245 245 243 243 246 248 249 250 250 250 251 251 252 253 253 255 257 260 262 252 241 246 252 251 248 247 250 249 246 245 241 241 246 249 245 248 245 229 226 221 218 224 220 224 250 248 237 252 254 263 274 268 265 267 271 281 288 296 307 312 316 317 321 327 329 332 334 333 333 333 336 340 343 345 346 346 345 345 347
249 248 247 247 246 245 246 246 245 245 247 249 250 250 251 251 251 250 251 253 253 254 257 258 257 250 240 241 242 243 245 244 246 249 249 247 246 249 253 253 244 239 246 237 233 229 222 226 227 232 248 249 244 248 255 270 277 272 271 266 267 276 282 287 297 301 303 306 312 320 324 325 326 326 326 329 332 337 339 341 342 341 341 343 346
254 252 251 250 250 249 248 249 248 247 247 248 250 250 251 251 250 249 249 252 254 253 254 256 257 253 242 241 244 244 245 243 242 243 246 248 249 251 247 249 250 244 246 242 236 239 232 229 234 240 247 252 254 255 259 265 268 269 270 266 264 267 273 280 286 291 291 296 304 312 318 319 318 320 321 325 330 334 336 338 338 337 339 342 343
255 254 252 251 251 250 250 250 250 250 249 248 250 251 252 252 250 250 249 248 251 253 254 254 255 252 243 242 245 247 249 246 242 240 243 248 247 245 242 247 253 247 246 243 234 245 248 240 242 246 247 250 252 254 256 259 261 263 265 265 265 263 265 272 277 281 283 289 297 302 309 311 312 315 317 322 327 331 334 335 335 335 337 339 341
254 254 253 253 251 250 250 251 251 251 251 249 249 251 252 253 250 250 250 248 247 250 253 251 251 250 246 246 246 248 252 249 245 242 240 245 246 243 243 250 256 250 245 245 240 244 256 260 257 255 252 250 249 250 252 254 255 257 258 261 264 264 260 265 272 275 278 284 289 294 300 304 306 310 313 319 324 328 331 332 332 333 334 336 338
254 253 253 253 252 251 250 251 251 251 252 251 251 253 253 254 253 251 251 251 248 247 249 248 245 245 247 250 249 248 250 247 244 243 240 240 241 242 247 253 256 253 247 245 245 246 255 264 266 263 261 257 252 251 252 252 251 253 255 254 259 265 262 261 268 272 275 280 284 288 293 298 301 305 310 316 321 325 328 329 330 331 332 333 334
254 253 253 253 254 253 253 253 253 254 254 254 253 254 254 254 254 252 250 251 250 248 247 247 243 239 242 249 253 252 254 253 247 243 242 243 241 242 247 253 254 254 249 245 246 251 255 260 263 264 265 264 260 256 255 254 251 251 251 249 252 260 264 264 264 267 272 276 280 284 288 294 298 303 307 313 318 322 325 326 328 329 329 329 330
253 254 254 255 255 256 256 257 257 257 257 257 255 253 253 253 253 252 249 248 250 249 247 244 241 239 240 246 256 262 263 261 257 253 252 251 248 246 248 251 253 253 251 247 248 252 254 255 258 261 261 264 265 262 259 257 254 251 247 246 249 254 261 266 265 265 268 271 277 281 285 291 296 300 305 310 315 319 321 324 326 327 327 327 327
253 255 256 257 257 257 257 257 258 258 258 257 256 253 252 253 253 252 250 248 248 248 247 245 242 240 239 241 247 257 258 255 258 266 267 259 247 242 246 250 253 254 251 250 252 254 255 255 257 259 259 261 264 264 262 259 257 255 248 245 248 251 256 263 266 266 266 268 272 278 282 286 292 296 301 307 312 316 318 321 324 325 325 325 325
251 254 256 256 256 255 255 254 255 256 257 257 257 256 254 253 253 252 249 248 248 247 247 247 245 239 230 232 239 243 244 246 258 270 270 262 253 249 251 253 254 253 249 252 257 258 258 259 261 262 261 260 261 262 263 262 260 259 254 249 248 250 254 259 263 264 265 267 269 273 278 283 288 292 297 303 309 313 316 319 321 322 322 322 322
251 251 253 254 254 254 253 253 253 254 255 256 256 256 255 254 253 252 250 248 249 251 250 247 247 244 234 223 225 234 239 245 257 262 257 260 265 264 263 264 260 255 253 254 257 259 261 263 266 266 265 262 260 260 261 263 262 260 258 253 249 250 252 256 260 259 258 263 267 270 274 279 284 289 295 301 307 312 315 318 319 319 319 320 320
255 253 253 254 254 253 252 252 252 252 254 255 256 256 255 255 253 252 252 250 249 250 252 249 248 249 244 234 227 230 239 246 244 243 250 261 268 266 264 266 266 261 258 256 255 259 263 265 266 267 268 265 262 260 260 261 263 262 261 257 253 252 253 254 257 258 254 254 264 269 271 275 281 287 293 298 304 310 315 316 317 316 317 317 317
260 258 256 256 256 254 252 252 251 250 252 253 254 255 255 256 254 253 253 252 249 246 249 251 248 248 248 245 241 239 240 242 238 241 254 261 263 264 261 261 265 267 264 258 257 261 266 267 266 267 269 268 264 262 261 261 263 265 264 260 257 255 255 255 255 257 253 248 257 268 271 274 279 284 290 295 302 309 313 314 315 314 315 315 315
261 260 260 260 259 258 256 253 251 249 249 251 253 254 254 255 255 254 252 251 250 248 246 246 247 250 252 250 248 247 245 245 245 246 251 256 259 263 264 262 263 267 267 264 263 267 271 270 268 267 268 268 267 263 262 261 262 265 264 262 261 259 258 257 256 257 255 251 257 267 271 274 278 283 287 292 299 306 311 313 313 313 314 314 313
260 259 260 260 261 262 261 259 255 250 248 250 251 252 253 253 253 254 253 251 251 251 249 245 245 250 254 254 252 250 248 248 247 245 246 250 253 256 263 264 264 265 266 267 269 270 271 270 269 267 266 267 267 265 264 262 262 264 264 264 265 264 262 260 258 258 257 257 260 265 269 273 276 279 283 288 295 301 307 311 312 313 312 312 310
260 259 258 258 259 261 262 263 261 257 253 252 250 250 252 252 252 253 254 253 251 251 251 250 246 245 250 255 254 251 248 247 246 244 244 248 251 252 256 259 261 265 266 268 271 272 270 266 265 265 264 265 267 267 266 264 264 266 266 265 265 266 266 264 261 259 258 258 260 263 266 269 272 274 278 283 290 296 303 308 311 312 311 310 308
261 260 259 258 256 257 259 261 262 261 259 256 253 251 250 250 251 251 252 252 253 251 250 251 249 245 243 247 252 255 254 253 251 248 246 247 251 254 254 255 259 265 269 270 271 270 267 263 261 261 262 265 267 267 266 265 265 268 269 266 264 264 265 265 263 261 261 259 258 260 263 265 267 270 274 279 285 291 298 304 308 310 309 308 307
262 261 260 259 257 256 256 257 259 261 260 259 257 255 252 249 249 251 252 251 251 251 249 248 249 248 244 242 247 252 255 257 256 254 254 253 253 255 256 256 258 263 269 271 271 270 266 262 259 260 262 263 266 268 267 266 266 266 268 266 263 261 261 262 262 263 265 261 257 258 260 262 264 267 270 275 281 287 293 301 306 308 307 305 304
262 262 261 261 261 259 257 257 258 261 262 260 258 257 255 251 249 250 252 252 251 251 251 250 250 249 248 246 246 248 251 254 253 255 258 256 254 256 258 258 257 260 264 267 270 272 269 264 260 260 262 262 264 267 268 268 267 266 266 264 262 260 258 258 261 265 267 263 258 257 258 260 262 264 268 272 277 284 290 298 304 306 304 303 304
263 263 262 263 263 262 261 260 260 261 263 262 259 258 256 253 251 250 251 253 253 253 252 253 251 250 250 250 247 247 250 251 248 250 254 253 252 254 257 258 257 256 258 262 267 269 268 267 263 260 261 262 264 267 270 271 270 268 267 264 261 259 257 257 261 264 265 263 261 258 256 258 260 262 266 270 275 282 288 295 302 304 302 302 304
265 264 263 263 263 263 263 263 262 261 262 264 264 261 258 255 253 251 251 252 252 250 251 251 251 250 250 251 249 248 250 251 247 246 249 251 251 252 253 254 256 255 255 257 261 265 267 268 267 262 261 263 265 268 273 275 273 271 268 265 261 258 257 258 261 261 261 263 263 259 255 256 257 259 264 268 273 280 286 293 299 301 300 302 305
265 264 263 263 264 264 264 263 264 263 263 265 266 265 262 257 255 253 252 251 248 247 249 249 250 250 250 250 249 249 250 250 247 247 249 249 248 250 248 246 251 255 256 256 257 263 267 268 269 269 266 266 267 270 276 279 276 271 268 265 262 259 257 257 260 260 260 263 265 262 257 255 255 258 262 267 272 279 284 290 296 298 299 301 303
263 263 263 264 264 265 266 265 264 264 264 264 264 266 265 260 256 255 255 253 250 247 248 248 249 249 249 249 249 249 249 249 247 247 248 246 245 247 246 244 247 251 254 256 257 262 268 270 272 275 276 274 272 273 277 279 277 274 272 270 265 261 258 257 259 261 261 262 264 264 259 255 255 256 260 266 272 278 281 286 293 296 297 299 302
264 264 264 265 265 266 266 266 265 264 264 264 263 264 264 262 259 257 256 255 252 249 250 250 250 250 249 249 249 250 250 250 249 247 245 244 245 245 244 244 246 248 251 257 260 264 269 272 274 278 280 279 277 279 281 281 279 275 275 275 272 267 261 257 258 260 260 260 261 263 260 256 255 256 260 265 271 276 278 282 291 294 295 299 303
265 264 265 266 266 266 265 264 264 264 263 263 262 262 262 261 259 258 257 256 254 252 252 253 252 251 250 250 251 252 252 251 250 249 246 245 246 245 245 244 245 248 252 256 261 263 265 270 276 280 279 279 280 281 282 281 274 269 270 272 273 270 259 253 255 257 258 259 260 261 259 257 256 256 259 264 269 273 274 279 288 291 294 298 302
266 266 265 265 265 265 264 263 263 264 264 263 263 261 260 260 259 257 257 257 256 255 254 254 254 253 252 251 252 253 255 253 252 252 251 250 249 248 248 249 250 252 254 255 257 260 263 268 274 276 276 277 278 280 282 280 272 269 273 273 269 263 250 245 250 254 256 260 260 259 258 257 256 257 259 263 267 269 270 276 285 289 293 297 301
270 271 271 270 270 269 268 267 266 265 264 263 263 261 260 259 259 258 258 258 257 256 256 255 254 254 255 254 253 254 255 255 253 253 254 254 254 254 254 255 255 255 254 254 257 260 263 266 268 270 271 272 275 278 280 278 273 272 276 274 262 248 237 236 245 251 255 257 257 258 258 257 256 257 258 261 264 265 267 274 282 287 290 294 298
275 276 276 275 274 273 272 271 268 266 264 263 262 261 259 258 257 257 258 257 256 256 255 254 253 254 255 255 255 256 256 255 254 255 257 258 258 258 258 257 258 257 256 255 257 259 260 262 265 267 268 270 273 275 275 276 276 273 273 273 258 239 232 234 242 248 251 254 256 257 257 256 256 256 257 260 262 261 264 271 279 284 287 290 295
283 281 280 278 276 275 273 272 268 265 264 262 261 260 259 258 256 257 257 256 256 256 254 254 254 254 255 257 257 257 257 256 256 257 260 260 259 259 258 258 259 259 257 254 255 257 259 261 262 264 266 269 272 273 273 274 274 268 268 269 256 239 234 238 243 247 249 252 255 255 255 254 255 255 257 259 259 259 261 269 277 281 283 287 293
291 288 285 282 280 278 276 275 273 269 266 264 262 260 259 259 258 258 258 257 257 256 255 255 255 255 256 257 257 257 257 257 258 259 259 259 259 258 258 258 257 256 255 253 252 254 256 257 258 260 265 268 269 270 270 270 269 267 268 266 255 244 241 244 249 252 251 251 253 254 253 253 254 255 256 257 256 256 260 268 275 279 280 285 292
301 294 289 284 282 280 278 277 277 275 272 270 268 264 261 261 260 259 258 258 258 258 257 256 256 257 257 257 257 258 258 258 258 258 258 258 258 255 254 256 257 253 252 252 252 254 255 256 257 259 262 264 265 266 267 265 264 265 267 263 252 245 247 251 256 256 251 247 250 252 251 251 252 253 253 253 253 254 260 267 275 277 278 283 290
306 300 294 287 283 282 280 279 277 276 274 272 270 268 265 263 261 260 258 259 259 259 259 259 258 258 257 257 258 258 258 258 258 258 258 257 255 252 251 253 254 252 253 256 259 261 260 258 259 260 261 262 264 265 264 261 260 262 266 262 252 246 248 253 257 255 248 243 247 251 252 251 251 250 251 251 251 253 259 267 274 275 276 282 289
304 300 296 291 286 283 282 281 279 276 274 271 269 268 267 265 263 261 259 258 258 259 260 260 259 258 257 257 257 258 257 257 257 258 258 256 254 252 251 251 250 251 254 257 261 265 263 258 257 259 261 261 260 259 258 257 257 260 262 258 250 247 249 252 254 252 247 244 247 251 254 253 250 248 248 248 248 251 258 267 273 273 275 281 287
298 295 292 289 286 283 282 282 282 280 276 272 270 267 266 265 264 262 259 258 258 259 259 260 258 258 257 256 257 257 256 256 257 257 256 253 252 251 251 250 250 251 252 254 256 261 261 257 254 257 260 259 257 255 254 254 255 257 260 258 252 250 252 255 255 251 248 248 249 252 254 253 251 248 247 244 243 248 256 265 270 272 274 280 285
292 290 287 285 283 281 281 282 283 282 280 277 274 271 267 265 263 262 260 258 258 258 258 258 257 256 256 256 257 257 256 256 256 257 256 252 252 253 251 249 249 253 257 256 254 254 258 260 258 256 257 256 254 254 256 257 258 262 264 261 254 251 254 255 253 250 250 251 251 252 253 252 251 248 245 240 238 245 255 263 268 270 273 278 283
287 287 284 282 281 281 280 280 281 282 281 281 279 276 272 268 265 264 262 261 259 258 258 258 257 256 256 257 258 257 257 257 257 257 254 251 251 253 251 248 250 256 259 257 251 248 253 259 261 259 258 256 256 258 260 262 263 261 258 255 252 250 250 250 249 249 251 250 250 250 250 249 248 247 243 236 235 243 254 261 267 269 271 275 281
285 285 282 280 280 279 278 278 278 279 281 283 282 280 276 272 268 266 264 263 262 260 260 259 259 259 258 259 259 258 258 257 256 256 254 250 250 251 251 252 254 257 258 255 249 246 249 256 261 260 259 258 259 261 262 263 261 254 248 249 251 251 251 252 253 253 253 253 252 250 249 247 245 244 240 234 234 243 253 261 265 266 268 273 280
284 282 280 279 278 277 275 274 275 276 280 283 283 282 280 276 272 268 265 264 263 262 261 261 261 261 260 260 260 259 259 257 256 256 253 250 253 254 254 256 256 254 253 252 251 250 251 254 257 257 257 258 260 262 264 263 258 248 245 250 253 254 257 259 260 258 256 256 254 251 249 247 244 241 236 231 234 244 253 260 263 263 266 271 278
280 279 278 277 276 275 273 272 272 273 277 280 282 283 281 278 274 270 266 264 262 261 261 261 262 262 262 261 260 260 259 257 256 254 250 248 250 250 249 253 256 255 251 250 253 256 255 253 253 254 255 259 264 268 270 264 249 240 246 253 254 254 256 258 260 260 256 254 253 252 251 248 244 241 234 230 235 245 254 260 260 261 265 270 276
278 278 279 279 278 278 276 274 272 272 274 277 281 282 281 279 276 271 267 265 262 261 260 260 261 261 261 261 261 261 258 255 254 252 249 249 249 247 246 249 251 251 250 250 253 254 251 248 249 251 255 262 269 274 271 257 241 238 250 258 258 256 256 255 255 254 252 251 250 251 251 246 243 239 233 231 238 247 254 257 257 259 265 269 275
279 280 281 282 283 282 280 277 274 272 272 276 279 280 280 279 277 273 269 265 262 261 259 259 259 259 259 259 260 261 259 256 255 252 250 251 251 248 248 248 246 246 249 249 248 248 248 248 251 255 260 265 268 267 259 245 237 240 250 255 254 251 250 250 249 248 249 248 247 248 247 243 239 236 232 233 240 248 253 254 255 260 265 268 275
285 285 284 284 285 285 284 281 277 273 272 273 275 276 278 279 278 275 272 268 265 263 261 259 258 257 257 257 258 259 260 259 257 254 251 251 249 247 246 245 244 247 249 247 243 244 246 248 252 255 258 260 262 260 249 236 232 238 244 244 243 242 242 243 245 246 247 246 245 245 243 240 236 231 230 233 239 247 253 255 257 262 265 269 276
289 290 290 288 286 285 284 283 282 278 275 272 272 273 275 276 276 275 272 270 268 266 265 263 261 260 258 256 255 255 257 257 255 252 249 247 248 249 247 244 245 248 248 245 243 243 244 246 249 252 253 255 258 256 245 233 230 235 238 240 243 245 245 244 245 246 246 244 243 242 240 238 233 228 228 233 241 249 255 258 260 262 265 270 277
286 287 289 290 289 287 284 283 284 282 279 275 272 272 272 274 276 276 274 272 270 269 269 268 266 264 262 260 256 253 255 255 251 248 249 248 248 250 248 244 245 247 246 243 242 242 242 243 246 249 251 252 254 252 242 232 230 235 239 244 248 249 249 248 248 249 248 245 242 239 237 234 231 228 230 236 244 251 256 259 260 262 266 270 276
288 287 287 288 289 289 287 284 282 281 280 278 275 273 272 274 275 276 275 274 272 271 271 270 269 266 263 262 258 254 255 254 247 244 247 248 248 248 246 243 243 245 245 243 243 245 246 245 246 248 249 250 252 248 238 231 232 237 241 246 249 249 249 250 249 247 247 246 242 235 232 232 230 229 231 237 244 251 255 257 258 261 265 269 275